| time (UTC) | temp F | wind direction | speed MPH | gust MPH | rain 1hr in | rain 24hr in | rain mn in | humidity % | barometer mb |
| 20260507044815 | 45 | 36 | 4.0 | 10.0 | 0.00 | 0.07 | 0.00 | 88 | 1010.0 |
| 20260507044516 | 45 | 31 | 4.0 | 7.0 | 0.00 | 0.07 | 0.00 | 88 | 1009.9 |
| 20260507044215 | 45 | 32 | 4.0 | 9.0 | 0.00 | 0.08 | 0.00 | 88 | 1009.9 |
| 20260507043916 | 45 | 37 | 4.0 | 8.0 | 0.00 | 0.08 | 0.00 | 88 | 1009.8 |
| 20260507043618 | 45 | 29 | 6.0 | 11.0 | 0.00 | 0.09 | 0.00 | 88 | 1009.8 |
| 20260507043316 | 45 | 29 | 6.0 | 13.0 | 0.00 | 0.09 | 0.00 | 88 | 1009.7 |
| 20260507043019 | 45 | 31 | 3.0 | 8.0 | 0.00 | 0.10 | 0.00 | 88 | 1009.7 |
| 20260507042756 | 45 | 33 | 3.0 | 7.0 | 0.00 | 0.11 | 0.00 | 88 | 1009.7 |
| 20260507042418 | 45 | 22 | 2.0 | 6.0 | 0.00 | 0.12 | 0.00 | 88 | 1009.6 |
| 20260507042115 | 45 | 30 | 4.0 | 8.0 | 0.00 | 0.12 | 0.00 | 87 | 1009.6 |
| 20260507041816 | 45 | 34 | 5.0 | 11.0 | 0.00 | 0.12 | 0.00 | 88 | 1009.6 |
| 20260507041516 | 45 | 17 | 2.0 | 5.0 | 0.00 | 0.12 | 0.00 | 87 | 1009.6 |
| 20260507041216 | 45 | 13 | 3.0 | 7.0 | 0.00 | 0.13 | 0.00 | 87 | 1009.5 |
| 20260507040916 | 45 | 42 | 4.0 | 8.0 | 0.00 | 0.13 | 0.00 | 87 | 1009.5 |
| 20260507040656 | 45 | 24 | 4.0 | 7.0 | 0.00 | 0.13 | 0.00 | 87 | 1009.6 |
| 20260507040316 | 45 | 15 | 5.0 | 9.0 | 0.00 | 0.13 | 0.00 | 87 | 1009.5 |
| 20260507040135 | 45 | 30 | 3.0 | 7.0 | 0.00 | 0.13 | 0.00 | 87 | 1009.4 |
| 20260507035716 | 45 | 25 | 4.0 | 10.0 | 0.00 | 0.13 | 0.00 | 87 | 1009.4 |
| 20260507035456 | 45 | 19 | 5.0 | 9.0 | 0.00 | 0.13 | 0.00 | 87 | 1009.3 |
| 20260507035116 | 45 | 33 | 4.0 | 8.0 | 0.00 | 0.13 | 0.00 | 87 | 1009.3 |
| 20260507034816 | 45 | 19 | 5.0 | 11.0 | 0.00 | 0.13 | 0.00 | 87 | 1009.3 |
| 20260507034516 | 45 | 19 | 4.0 | 12.0 | 0.00 | 0.13 | 0.00 | 87 | 1009.4 |
| 20260507034216 | 45 | 14 | 6.0 | 12.0 | 0.00 | 0.13 | 0.00 | 87 | 1009.4 |
| 20260507033915 | 45 | 26 | 3.0 | 7.0 | 0.00 | 0.13 | 0.00 | 87 | 1009.4 |
| 20260507033616 | 45 | 38 | 4.0 | 10.0 | 0.00 | 0.13 | 0.00 | 87 | 1009.4 |
| 20260507033359 | 45 | 32 | 4.0 | 11.0 | 0.00 | 0.13 | 0.00 | 87 | 1009.3 |
| 20260507033016 | 45 | 39 | 5.0 | 10.0 | 0.00 | 0.13 | 0.00 | 87 | 1009.3 |
| 20260507032716 | 45 | 37 | 3.0 | 7.0 | 0.00 | 0.13 | 0.00 | 87 | 1009.3 |
| 20260507032416 | 45 | 41 | 5.0 | 9.0 | 0.00 | 0.13 | 0.00 | 87 | 1009.4 |
| 20260507032116 | 45 | 32 | 5.0 | 9.0 | 0.00 | 0.13 | 0.00 | 87 | 1009.4 |
| 20260507031815 | 45 | 24 | 3.0 | 10.0 | 0.00 | 0.13 | 0.00 | 87 | 1009.4 |
| 20260507031516 | 45 | 44 | 4.0 | 8.0 | 0.00 | 0.13 | 0.00 | 87 | 1009.4 |
| 20260507031259 | 45 | 47 | 3.0 | 5.0 | 0.00 | 0.13 | 0.00 | 87 | 1009.3 |
| 20260507030956 | 45 | 41 | 4.0 | 8.0 | 0.00 | 0.13 | 0.00 | 87 | 1009.3 |
| 20260507030616 | 45 | 33 | 4.0 | 10.0 | 0.00 | 0.13 | 0.00 | 87 | 1009.4 |
| 20260507030316 | 45 | 16 | 3.0 | 9.0 | 0.00 | 0.13 | 0.00 | 87 | 1009.4 |
| 20260507030019 | 45 | 32 | 4.0 | 8.0 | 0.00 | 0.13 | 0.00 | 87 | 1009.4 |
| 20260507025715 | 45 | 21 | 4.0 | 9.0 | 0.00 | 0.13 | 0.00 | 87 | 1009.4 |
| 20260507025416 | 45 | 23 | 5.0 | 10.0 | 0.00 | 0.13 | 0.00 | 87 | 1009.3 |
| 20260507025116 | 45 | 29 | 4.0 | 7.0 | 0.00 | 0.13 | 0.00 | 87 | 1009.3 |
| 20260507024819 | 45 | 27 | 3.0 | 7.0 | 0.00 | 0.13 | 0.00 | 87 | 1009.3 |
| 20260507024515 | 45 | 33 | 4.0 | 7.0 | 0.00 | 0.13 | 0.00 | 87 | 1009.4 |
| 20260507024216 | 45 | 22 | 5.0 | 8.0 | 0.00 | 0.13 | 0.00 | 87 | 1009.4 |
| 20260507023916 | 45 | 11 | 4.0 | 7.0 | 0.00 | 0.14 | 0.00 | 87 | 1009.4 |
| 20260507023615 | 45 | 20 | 3.0 | 9.0 | 0.00 | 0.14 | 0.00 | 87 | 1009.3 |
| 20260507023316 | 45 | 17 | 5.0 | 10.0 | 0.00 | 0.14 | 0.00 | 87 | 1009.3 |
| 20260507023016 | 45 | 20 | 4.0 | 8.0 | 0.00 | 0.15 | 0.00 | 87 | 1009.4 |
| 20260507022718 | 45 | 21 | 3.0 | 8.0 | 0.00 | 0.16 | 0.00 | 87 | 1009.3 |
| 20260507022415 | 45 | 16 | 4.0 | 7.0 | 0.00 | 0.16 | 0.00 | 87 | 1009.4 |
| 20260507022116 | 45 | 18 | 3.0 | 9.0 | 0.00 | 0.16 | 0.00 | 87 | 1009.3 |
| 20260507021816 | 45 | 17 | 3.0 | 6.0 | 0.00 | 0.17 | 0.00 | 87 | 1009.3 |
| 20260507021515 | 45 | 12 | 4.0 | 7.0 | 0.00 | 0.17 | 0.00 | 87 | 1009.3 |
| 20260507021219 | 45 | 12 | 4.0 | 7.0 | 0.00 | 0.19 | 0.00 | 87 | 1009.2 |
| 20260507020916 | 45 | 10 | 4.0 | 9.0 | 0.00 | 0.20 | 0.00 | 87 | 1009.3 |
| 20260507020616 | 45 | 10 | 4.0 | 10.0 | 0.00 | 0.20 | 0.00 | 87 | 1009.2 |
| 20260507020331 | 45 | 6 | 4.0 | 8.0 | 0.00 | 0.22 | 0.00 | 87 | 1009.2 |
| 20260507020016 | 45 | 19 | 4.0 | 7.0 | 0.00 | 0.23 | 0.00 | 87 | 1009.2 |
| 20260507015716 | 45 | 14 | 5.0 | 10.0 | 0.00 | 0.24 | 0.00 | 87 | 1009.1 |
| 20260507015416 | 45 | 25 | 5.0 | 9.0 | 0.00 | 0.25 | 0.00 | 87 | 1009.1 |
| 20260507015116 | 45 | 20 | 3.0 | 9.0 | 0.00 | 0.26 | 0.00 | 87 | 1009.2 |
| 20260507014816 | 45 | 15 | 4.0 | 9.0 | 0.00 | 0.28 | 0.00 | 87 | 1009.2 |
| 20260507014516 | 45 | 13 | 4.0 | 8.0 | 0.00 | 0.29 | 0.00 | 87 | 1009.2 |
| 20260507014215 | 45 | 10 | 4.0 | 9.0 | 0.00 | 0.30 | 0.00 | 87 | 1009.2 |
| 20260507013956 | 45 | 15 | 4.0 | 7.0 | 0.00 | 0.31 | 0.00 | 87 | 1009.1 |
| 20260507013616 | 45 | 28 | 5.0 | 11.0 | 0.00 | 0.32 | 0.00 | 87 | 1009.1 |
| 20260507013316 | 45 | 19 | 5.0 | 10.0 | 0.00 | 0.33 | 0.00 | 87 | 1009.0 |
| 20260507013016 | 45 | 30 | 4.0 | 8.0 | 0.00 | 0.34 | 0.00 | 87 | 1009.0 |
| 20260507012716 | 45 | 14 | 5.0 | 10.0 | 0.00 | 0.34 | 0.00 | 87 | 1008.9 |
| 20260507012419 | 45 | 25 | 4.0 | 9.0 | 0.00 | 0.35 | 0.00 | 87 | 1008.9 |
| 20260507012115 | 45 | 18 | 6.0 | 13.0 | 0.00 | 0.35 | 0.00 | 87 | 1008.8 |
| 20260507011816 | 45 | 26 | 6.0 | 13.0 | 0.00 | 0.37 | 0.00 | 87 | 1008.7 |
| 20260507011556 | 45 | 30 | 4.0 | 8.0 | 0.00 | 0.39 | 0.00 | 87 | 1008.7 |
| 20260507010916 | 45 | 34 | 4.0 | 7.0 | 0.00 | 0.41 | 0.00 | 87 | 1008.7 |
| 20260507010619 | 45 | 14 | 4.0 | 9.0 | 0.00 | 0.43 | 0.00 | 87 | 1008.7 |
| 20260507010316 | 45 | 24 | 5.0 | 11.0 | 0.00 | 0.45 | 0.00 | 87 | 1008.6 |
| 20260507010016 | 45 | 7 | 3.0 | 6.0 | 0.00 | 0.46 | 0.00 | 87 | 1008.6 |
| 20260507005716 | 45 | 29 | 5.0 | 10.0 | 0.00 | 0.46 | 0.00 | 87 | 1008.5 |
| 20260507005428 | 46 | 23 | 4.0 | 16.0 | 0.00 | 0.46 | 0.00 | 87 | 1008.4 |
| 20260507005116 | 46 | 18 | 4.0 | 8.0 | 0.00 | 0.47 | 0.00 | 87 | 1008.4 |
| 20260507004816 | 46 | 29 | 3.0 | 6.0 | 0.00 | 0.47 | 0.00 | 87 | 1008.4 |
| 20260507004516 | 46 | 35 | 4.0 | 9.0 | 0.00 | 0.47 | 0.00 | 87 | 1008.5 |
| 20260507004216 | 46 | 15 | 4.0 | 8.0 | 0.00 | 0.47 | 0.00 | 87 | 1008.6 |
| 20260507003956 | 46 | 18 | 4.0 | 9.0 | 0.00 | 0.47 | 0.00 | 87 | 1008.6 |
| 20260507003616 | 46 | 27 | 4.0 | 8.0 | 0.00 | 0.47 | 0.00 | 88 | 1008.6 |
| 20260507003316 | 46 | 30 | 4.0 | 10.0 | 0.00 | 0.47 | 0.00 | 88 | 1008.6 |
| 20260507003015 | 46 | 30 | 3.0 | 8.0 | 0.00 | 0.47 | 0.00 | 88 | 1008.5 |
| 20260507002716 | 45 | 0 | 1.0 | 6.0 | 0.00 | 0.47 | 0.00 | 88 | 1008.4 |
| 20260507002416 | 46 | 21 | 5.0 | 10.0 | 0.00 | 0.47 | 0.00 | 88 | 1008.3 |
| 20260507002116 | 46 | 29 | 6.0 | 11.0 | 0.00 | 0.47 | 0.00 | 88 | 1008.3 |
| 20260507001815 | 46 | 28 | 5.0 | 9.0 | 0.00 | 0.48 | 0.00 | 88 | 1008.4 |
| 20260507001516 | 46 | 33 | 4.0 | 8.0 | 0.00 | 0.48 | 0.00 | 88 | 1008.5 |
| 20260507001216 | 46 | 45 | 4.0 | 9.0 | 0.00 | 0.49 | 0.00 | 88 | 1008.6 |
| 20260507000919 | 46 | 28 | 3.0 | 7.0 | 0.00 | 0.49 | 0.00 | 88 | 1008.6 |
| 20260507000615 | 46 | 26 | 6.0 | 12.0 | 0.00 | 0.49 | 0.00 | 88 | 1008.5 |
| 20260507000316 | 46 | 29 | 4.0 | 10.0 | 0.00 | 0.50 | 0.00 | 88 | 1008.6 |
| 20260507000056 | 46 | 25 | 3.0 | 10.0 | 0.00 | 0.50 | 0.00 | 88 | 1008.5 |
| 20260506235719 | 46 | 25 | 6.0 | 11.0 | 0.00 | 0.50 | 0.00 | 88 | 1008.4 |
| 20260506235416 | 46 | 13 | 5.0 | 11.0 | 0.00 | 0.52 | 0.00 | 88 | 1008.4 |
| 20260506235156 | 46 | 17 | 6.0 | 11.0 | 0.00 | 0.54 | 0.00 | 88 | 1008.4 |
| 20260506234816 | 46 | 13 | 5.0 | 13.0 | 0.00 | 0.54 | 0.00 | 88 | 1008.4 |
| 20260506234516 | 46 | 12 | 7.0 | 14.0 | 0.00 | 0.56 | 0.00 | 88 | 1008.5 |
| 20260506234216 | 46 | 6 | 9.0 | 14.0 | 0.00 | 0.57 | 0.00 | 88 | 1008.4 |
| 20260506233916 | 46 | 7 | 7.0 | 14.0 | 0.00 | 0.58 | 0.00 | 87 | 1008.5 |
| 20260506233615 | 47 | 3 | 5.0 | 12.0 | 0.00 | 0.60 | 0.00 | 88 | 1008.5 |
| 20260506233359 | 47 | 15 | 5.0 | 10.0 | 0.00 | 0.60 | 0.00 | 87 | 1008.5 |
| 20260506233016 | 47 | 20 | 5.0 | 9.0 | 0.00 | 0.61 | 0.00 | 87 | 1008.5 |
| 20260506232716 | 47 | 11 | 7.0 | 14.0 | 0.00 | 0.61 | 0.00 | 87 | 1008.4 |
| 20260506232416 | 47 | 8 | 7.0 | 16.0 | 0.00 | 0.61 | 0.00 | 87 | 1008.4 |
| 20260506232116 | 47 | 24 | 6.0 | 11.0 | 0.00 | 0.61 | 0.00 | 87 | 1008.3 |
| 20260506231856 | 47 | 38 | 5.0 | 12.0 | 0.00 | 0.61 | 0.00 | 87 | 1008.3 |
| 20260506231515 | 47 | 22 | 5.0 | 10.0 | 0.00 | 0.61 | 0.00 | 87 | 1008.2 |
| 20260506231216 | 47 | 26 | 5.0 | 13.0 | 0.00 | 0.61 | 0.00 | 87 | 1008.2 |
| 20260506230936 | 48 | 33 | 8.0 | 15.0 | 0.00 | 0.61 | 0.00 | 87 | 1008.2 |
| 20260506230316 | 48 | 33 | 7.0 | 11.0 | 0.00 | 0.61 | 0.00 | 87 | 1008.2 |
| 20260506230016 | 48 | 21 | 4.0 | 9.0 | 0.00 | 0.61 | 0.00 | 87 | 1008.2 |
| 20260506225716 | 48 | 36 | 6.0 | 11.0 | 0.00 | 0.61 | 0.00 | 87 | 1008.2 |
| 20260506225415 | 48 | 34 | 6.0 | 13.0 | 0.00 | 0.61 | 0.00 | 87 | 1008.2 |
| 20260506225116 | 48 | 35 | 4.0 | 7.0 | 0.00 | 0.61 | 0.00 | 87 | 1008.1 |
| 20260506224816 | 48 | 35 | 7.0 | 13.0 | 0.00 | 0.61 | 0.00 | 87 | 1008.1 |
| 20260506224516 | 48 | 33 | 5.0 | 9.0 | 0.00 | 0.61 | 0.00 | 87 | 1008.2 |
| 20260506224216 | 48 | 42 | 6.0 | 12.0 | 0.00 | 0.61 | 0.00 | 87 | 1008.2 |
| 20260506223917 | 48 | 32 | 4.0 | 8.0 | 0.00 | 0.61 | 0.00 | 87 | 1008.1 |
| 20260506223619 | 49 | 31 | 6.0 | 11.0 | 0.00 | 0.61 | 0.00 | 87 | 1008.0 |
| 20260506223315 | 49 | 19 | 4.0 | 9.0 | 0.00 | 0.61 | 0.00 | 86 | 1008.0 |
| 20260506223019 | 49 | 30 | 5.0 | 10.0 | 0.00 | 0.61 | 0.00 | 86 | 1008.0 |
| 20260506222715 | 49 | 29 | 6.0 | 10.0 | 0.00 | 0.61 | 0.00 | 86 | 1007.9 |
| 20260506222416 | 49 | 28 | 5.0 | 10.0 | 0.00 | 0.61 | 0.00 | 86 | 1007.9 |
| 20260506222115 | 49 | 20 | 6.0 | 11.0 | 0.00 | 0.61 | 0.00 | 86 | 1007.8 |
| 20260506221856 | 49 | 27 | 5.0 | 12.0 | 0.00 | 0.61 | 0.00 | 87 | 1007.7 |
| 20260506221516 | 49 | 24 | 3.0 | 7.0 | 0.00 | 0.61 | 0.00 | 86 | 1007.7 |
| 20260506221215 | 49 | 34 | 4.0 | 11.0 | 0.00 | 0.61 | 0.00 | 86 | 1007.6 |
| 20260506220955 | 49 | 33 | 6.0 | 10.0 | 0.00 | 0.61 | 0.00 | 86 | 1007.6 |
| 20260506220616 | 49 | 19 | 3.0 | 6.0 | 0.00 | 0.61 | 0.00 | 86 | 1007.6 |
| 20260506220316 | 49 | 28 | 4.0 | 9.0 | 0.00 | 0.61 | 0.00 | 86 | 1007.6 |
| 20260506220019 | 49 | 28 | 7.0 | 14.0 | 0.00 | 0.61 | 0.00 | 86 | 1007.6 |
| 20260506215716 | 49 | 29 | 6.0 | 10.0 | 0.00 | 0.61 | 0.61 | 86 | 1007.7 |
| 20260506215456 | 49 | 28 | 5.0 | 10.0 | 0.00 | 0.61 | 0.61 | 87 | 1007.7 |
| 20260506215115 | 49 | 30 | 4.0 | 12.0 | 0.00 | 0.61 | 0.61 | 87 | 1007.7 |
| 20260506214816 | 49 | 30 | 5.0 | 10.0 | 0.00 | 0.61 | 0.61 | 87 | 1007.7 |
| 20260506214516 | 49 | 21 | 5.0 | 10.0 | 0.00 | 0.61 | 0.61 | 87 | 1007.7 |
| 20260506214216 | 49 | 48 | 2.0 | 7.0 | 0.00 | 0.61 | 0.61 | 87 | 1007.7 |
| 20260506213919 | 49 | 30 | 3.0 | 6.0 | 0.00 | 0.61 | 0.61 | 87 | 1007.7 |
| 20260506213616 | 49 | 35 | 3.0 | 7.0 | 0.00 | 0.61 | 0.61 | 87 | 1007.6 |
| 20260506213356 | 49 | 25 | 4.0 | 9.0 | 0.00 | 0.61 | 0.61 | 87 | 1007.6 |
| 20260506213015 | 49 | 14 | 4.0 | 8.0 | 0.00 | 0.61 | 0.61 | 87 | 1007.7 |
| 20260506212716 | 49 | 20 | 3.0 | 7.0 | 0.00 | 0.61 | 0.61 | 87 | 1007.7 |
| 20260506212416 | 49 | 3 | 2.0 | 6.0 | 0.00 | 0.61 | 0.61 | 87 | 1007.7 |
| 20260506212116 | 49 | 28 | 3.0 | 4.0 | 0.00 | 0.61 | 0.61 | 86 | 1007.7 |
| 20260506211922 | 49 | 36 | 1.0 | 3.0 | 0.00 | 0.61 | 0.61 | 86 | 1007.7 |
| 20260506211216 | 49 | 38 | 4.0 | 10.0 | 0.00 | 0.61 | 0.61 | 86 | 1007.6 |
| 20260506210915 | 49 | 33 | 4.0 | 8.0 | 0.00 | 0.61 | 0.61 | 86 | 1007.6 |
| 20260506210616 | 49 | 27 | 3.0 | 7.0 | 0.00 | 0.61 | 0.61 | 86 | 1007.6 |
| 20260506210356 | 49 | 38 | 3.0 | 8.0 | 0.00 | 0.61 | 0.61 | 86 | 1007.6 |
| 20260506210016 | 49 | 27 | 2.0 | 7.0 | 0.00 | 0.61 | 0.61 | 86 | 1007.7 |
| 20260506205716 | 49 | 25 | 2.0 | 5.0 | 0.00 | 0.61 | 0.61 | 86 | 1007.6 |
| 20260506205432 | 49 | 40 | 4.0 | 8.0 | 0.00 | 0.61 | 0.61 | 86 | 1007.5 |
| 20260506205116 | 49 | 33 | 4.0 | 9.0 | 0.00 | 0.61 | 0.61 | 86 | 1007.6 |
| 20260506204815 | 49 | 45 | 2.0 | 5.0 | 0.00 | 0.61 | 0.61 | 86 | 1007.6 |
| 20260506204516 | 49 | 48 | 3.0 | 7.0 | 0.00 | 0.61 | 0.61 | 86 | 1007.6 |
| 20260506204215 | 49 | 42 | 2.0 | 6.0 | 0.00 | 0.61 | 0.61 | 86 | 1007.7 |
| 20260506203917 | 49 | 51 | 2.0 | 4.0 | 0.00 | 0.61 | 0.61 | 86 | 1007.7 |
| 20260506203616 | 49 | 52 | 3.0 | 7.0 | 0.00 | 0.61 | 0.61 | 86 | 1007.7 |
| 20260506203316 | 49 | 60 | 3.0 | 6.0 | 0.00 | 0.61 | 0.61 | 86 | 1007.8 |
| 20260506203016 | 49 | 50 | 4.0 | 8.0 | 0.00 | 0.61 | 0.61 | 86 | 1007.7 |
| 20260506202715 | 50 | 46 | 4.0 | 9.0 | 0.00 | 0.61 | 0.61 | 86 | 1007.7 |
| 20260506202416 | 50 | 41 | 4.0 | 7.0 | 0.00 | 0.61 | 0.61 | 86 | 1007.7 |
| 20260506202115 | 50 | 41 | 5.0 | 9.0 | 0.00 | 0.61 | 0.61 | 87 | 1007.6 |
| 20260506201819 | 50 | 44 | 3.0 | 8.0 | 0.00 | 0.61 | 0.61 | 86 | 1007.5 |
| 20260506201516 | 50 | 22 | 4.0 | 9.0 | 0.00 | 0.61 | 0.61 | 86 | 1007.3 |
| 20260506201215 | 50 | 33 | 4.0 | 8.0 | 0.00 | 0.61 | 0.61 | 87 | 1007.3 |
| 20260506200959 | 50 | 36 | 5.0 | 9.0 | 0.00 | 0.61 | 0.61 | 87 | 1007.2 |
| 20260506200615 | 50 | 36 | 5.0 | 9.0 | 0.00 | 0.61 | 0.61 | 87 | 1007.2 |
| 20260506200316 | 50 | 35 | 5.0 | 11.0 | 0.00 | 0.61 | 0.61 | 87 | 1007.2 |
| 20260506200055 | 50 | 22 | 2.0 | 5.0 | 0.00 | 0.61 | 0.61 | 87 | 1007.2 |
| 20260506195716 | 50 | 25 | 4.0 | 7.0 | 0.00 | 0.61 | 0.61 | 87 | 1007.2 |
| 20260506195416 | 50 | 30 | 3.0 | 6.0 | 0.00 | 0.61 | 0.61 | 87 | 1007.1 |
| 20260506195116 | 50 | 38 | 3.0 | 8.0 | 0.00 | 0.61 | 0.61 | 87 | 1007.0 |
| 20260506194816 | 50 | 40 | 4.0 | 7.0 | 0.00 | 0.61 | 0.61 | 87 | 1007.0 |
| 20260506194515 | 50 | 29 | 3.0 | 8.0 | 0.00 | 0.61 | 0.61 | 87 | 1007.1 |
| 20260506194216 | 50 | 27 | 3.0 | 6.0 | 0.00 | 0.61 | 0.61 | 87 | 1007.1 |
| 20260506193918 | 50 | 38 | 3.0 | 4.0 | 0.00 | 0.61 | 0.61 | 86 | 1007.2 |
| 20260506193616 | 50 | 31 | 3.0 | 5.0 | 0.00 | 0.61 | 0.61 | 86 | 1007.2 |
| 20260506193316 | 50 | 19 | 3.0 | 7.0 | 0.00 | 0.61 | 0.61 | 86 | 1007.0 |
| 20260506193039 | 50 | 29 | 6.0 | 11.0 | 0.00 | 0.61 | 0.61 | 85 | 1007.0 |
| 20260506192415 | 51 | 23 | 4.0 | 8.0 | 0.00 | 0.61 | 0.61 | 85 | 1007.0 |
| 20260506192116 | 51 | 19 | 6.0 | 13.0 | 0.00 | 0.61 | 0.61 | 85 | 1007.0 |
| 20260506191818 | 51 | 18 | 5.0 | 10.0 | 0.00 | 0.61 | 0.61 | 86 | 1007.0 |
| 20260506191516 | 51 | 24 | 6.0 | 12.0 | 0.00 | 0.61 | 0.61 | 86 | 1007.0 |
| 20260506191216 | 51 | 25 | 5.0 | 11.0 | 0.00 | 0.61 | 0.61 | 86 | 1007.0 |
| 20260506190916 | 51 | 26 | 5.0 | 11.0 | 0.00 | 0.61 | 0.61 | 86 | 1007.1 |
| 20260506190659 | 51 | 22 | 5.0 | 10.0 | 0.00 | 0.61 | 0.61 | 86 | 1007.0 |
| 20260506190315 | 51 | 22 | 4.0 | 10.0 | 0.00 | 0.61 | 0.61 | 87 | 1007.1 |
| 20260506190016 | 51 | 23 | 5.0 | 11.0 | 0.00 | 0.61 | 0.61 | 87 | 1006.9 |
| 20260506185715 | 51 | 20 | 5.0 | 12.0 | 0.00 | 0.61 | 0.61 | 87 | 1006.9 |
| 20260506185416 | 51 | 22 | 4.0 | 11.0 | 0.00 | 0.61 | 0.61 | 87 | 1006.7 |
| 20260506185116 | 51 | 20 | 5.0 | 9.0 | 0.00 | 0.61 | 0.61 | 87 | 1006.8 |
| 20260506184816 | 51 | 27 | 5.0 | 12.0 | 0.00 | 0.61 | 0.61 | 87 | 1006.8 |
| 20260506184516 | 51 | 24 | 3.0 | 7.0 | 0.00 | 0.61 | 0.61 | 87 | 1006.7 |
| 20260506184255 | 51 | 24 | 4.0 | 9.0 | 0.00 | 0.61 | 0.61 | 87 | 1006.7 |
| 20260506183916 | 51 | 10 | 5.0 | 12.0 | 0.00 | 0.61 | 0.61 | 87 | 1006.7 |
| 20260506183615 | 52 | 10 | 4.0 | 7.0 | 0.00 | 0.61 | 0.61 | 87 | 1006.8 |
| 20260506183316 | 52 | 22 | 4.0 | 9.0 | 0.00 | 0.61 | 0.61 | 87 | 1006.7 |
| 20260506183016 | 52 | 31 | 4.0 | 8.0 | 0.00 | 0.61 | 0.61 | 87 | 1006.7 |
| 20260506182716 | 52 | 28 | 3.0 | 9.0 | 0.00 | 0.61 | 0.61 | 87 | 1006.7 |
| 20260506182416 | 52 | 36 | 2.0 | 7.0 | 0.00 | 0.61 | 0.61 | 87 | 1006.7 |
| 20260506182156 | 52 | 32 | 3.0 | 7.0 | 0.00 | 0.61 | 0.61 | 87 | 1006.6 |
| 20260506181816 | 52 | 35 | 3.0 | 7.0 | 0.00 | 0.61 | 0.61 | 87 | 1006.6 |
| 20260506181515 | 52 | 35 | 5.0 | 8.0 | 0.00 | 0.61 | 0.61 | 87 | 1006.5 |
| 20260506181336 | 52 | 32 | 4.0 | 10.0 | 0.00 | 0.61 | 0.61 | 87 | 1006.4 |
| 20260506180916 | 52 | 26 | 2.0 | 6.0 | 0.00 | 0.61 | 0.61 | 87 | 1006.4 |
| 20260506180616 | 52 | 12 | 3.0 | 7.0 | 0.00 | 0.61 | 0.61 | 86 | 1006.3 |
| 20260506180315 | 52 | 23 | 4.0 | 11.0 | 0.00 | 0.61 | 0.61 | 86 | 1006.3 |
| 20260506180016 | 52 | 18 | 4.0 | 9.0 | 0.00 | 0.61 | 0.61 | 86 | 1006.3 |
| 20260506175716 | 52 | 26 | 4.0 | 7.0 | 0.00 | 0.61 | 0.61 | 86 | 1006.3 |
| 20260506175415 | 52 | 12 | 3.0 | 7.0 | 0.00 | 0.61 | 0.61 | 86 | 1006.3 |
| 20260506175115 | 52 | 20 | 3.0 | 7.0 | 0.00 | 0.61 | 0.61 | 86 | 1006.3 |
| 20260506174816 | 52 | 17 | 3.0 | 8.0 | 0.00 | 0.61 | 0.61 | 86 | 1006.3 |
| 20260506174559 | 52 | 17 | 4.0 | 7.0 | 0.00 | 0.61 | 0.61 | 86 | 1006.3 |
| 20260506174217 | 52 | 9 | 3.0 | 7.0 | 0.00 | 0.61 | 0.61 | 86 | 1006.3 |
| 20260506173916 | 53 | 33 | 5.0 | 8.0 | 0.00 | 0.61 | 0.61 | 86 | 1006.3 |
| 20260506173616 | 53 | 40 | 4.0 | 7.0 | 0.00 | 0.61 | 0.61 | 87 | 1006.3 |
| 20260506173315 | 53 | 18 | 3.0 | 5.0 | 0.00 | 0.61 | 0.61 | 86 | 1006.3 |
| 20260506173016 | 53 | 11 | 4.0 | 7.0 | 0.00 | 0.61 | 0.61 | 86 | 1006.3 |
| 20260506172756 | 53 | 12 | 3.0 | 7.0 | 0.00 | 0.61 | 0.61 | 86 | 1006.3 |
| 20260506172416 | 53 | 17 | 3.0 | 5.0 | 0.00 | 0.61 | 0.61 | 86 | 1006.3 |
| 20260506172236 | 52 | 13 | 4.0 | 10.0 | 0.00 | 0.61 | 0.61 | 86 | 1006.3 |
| 20260506171816 | 53 | 6 | 5.0 | 10.0 | 0.00 | 0.61 | 0.61 | 85 | 1006.4 |
| 20260506171516 | 53 | 13 | 5.0 | 9.0 | 0.00 | 0.61 | 0.61 | 85 | 1006.4 |
| 20260506171215 | 53 | 12 | 4.0 | 7.0 | 0.00 | 0.61 | 0.61 | 85 | 1006.4 |
| 20260506170916 | 53 | 12 | 4.0 | 9.0 | 0.00 | 0.61 | 0.61 | 85 | 1006.4 |
| 20260506170616 | 53 | 6 | 5.0 | 12.0 | 0.00 | 0.61 | 0.61 | 85 | 1006.4 |
| 20260506170316 | 53 | 15 | 5.0 | 9.0 | 0.00 | 0.61 | 0.61 | 86 | 1006.3 |
| 20260506170016 | 53 | 10 | 4.0 | 10.0 | 0.00 | 0.61 | 0.61 | 86 | 1006.3 |
| 20260506165716 | 53 | 10 | 5.0 | 8.0 | 0.00 | 0.61 | 0.61 | 85 | 1006.3 |
| 20260506165416 | 53 | 7 | 8.0 | 15.0 | 0.00 | 0.61 | 0.61 | 85 | 1006.2 |
| 20260506165115 | 53 | 15 | 6.0 | 16.0 | 0.00 | 0.61 | 0.61 | 85 | 1006.2 |
| 20260506164816 | 54 | 13 | 7.0 | 14.0 | 0.00 | 0.61 | 0.61 | 85 | 1006.3 |
| 20260506164516 | 54 | 7 | 5.0 | 10.0 | 0.00 | 0.61 | 0.61 | 85 | 1006.2 |
| 20260506164256 | 54 | 20 | 5.0 | 10.0 | 0.00 | 0.61 | 0.61 | 85 | 1006.3 |
| 20260506164036 | 54 | 7 | 7.0 | 13.0 | 0.00 | 0.61 | 0.61 | 85 | 1006.3 |
| 20260506163616 | 54 | 4 | 5.0 | 10.0 | 0.00 | 0.61 | 0.61 | 85 | 1006.3 |
| 20260506163316 | 54 | 9 | 5.0 | 12.0 | 0.00 | 0.61 | 0.61 | 85 | 1006.4 |
| 20260506163015 | 54 | 6 | 7.0 | 10.0 | 0.00 | 0.61 | 0.61 | 85 | 1006.3 |
| 20260506162716 | 54 | 10 | 5.0 | 10.0 | 0.00 | 0.61 | 0.61 | 85 | 1006.4 |
| 20260506162419 | 54 | 20 | 3.0 | 7.0 | 0.00 | 0.61 | 0.61 | 85 | 1006.4 |
| 20260506162116 | 54 | 3 | 3.0 | 6.0 | 0.00 | 0.61 | 0.61 | 85 | 1006.4 |
| 20260506161856 | 54 | 7 | 4.0 | 10.0 | 0.00 | 0.61 | 0.61 | 85 | 1006.4 |
| 20260506161516 | 54 | 10 | 5.0 | 9.0 | 0.00 | 0.61 | 0.61 | 85 | 1006.3 |
| 20260506161216 | 54 | 10 | 4.0 | 9.0 | 0.00 | 0.61 | 0.61 | 85 | 1006.4 |
| 20260506160915 | 54 | 5 | 5.0 | 9.0 | 0.00 | 0.61 | 0.61 | 85 | 1006.4 |
| 20260506160616 | 54 | 17 | 6.0 | 10.0 | 0.00 | 0.61 | 0.61 | 85 | 1006.4 |
| 20260506160439 | 54 | 18 | 5.0 | 9.0 | 0.00 | 0.61 | 0.61 | 85 | 1006.4 |
| 20260506160016 | 55 | 11 | 6.0 | 11.0 | 0.00 | 0.61 | 0.61 | 85 | 1006.4 |
| 20260506155716 | 55 | 1 | 4.0 | 7.0 | 0.00 | 0.61 | 0.61 | 85 | 1006.4 |
| 20260506155455 | 55 | 10 | 7.0 | 12.0 | 0.00 | 0.61 | 0.61 | 85 | 1006.3 |
| 20260506155116 | 54 | 8 | 6.0 | 11.0 | 0.00 | 0.61 | 0.61 | 86 | 1006.3 |
| 20260506154815 | 54 | 13 | 5.0 | 9.0 | 0.00 | 0.61 | 0.61 | 86 | 1006.3 |
| 20260506154516 | 54 | 4 | 4.0 | 9.0 | 0.00 | 0.61 | 0.61 | 86 | 1006.4 |
| 20260506154215 | 54 | 12 | 4.0 | 10.0 | 0.00 | 0.61 | 0.61 | 86 | 1006.4 |
| 20260506153916 | 54 | 11 | 6.0 | 13.0 | 0.00 | 0.61 | 0.61 | 87 | 1006.4 |
| 20260506153616 | 54 | 9 | 5.0 | 10.0 | 0.00 | 0.61 | 0.61 | 87 | 1006.4 |
| 20260506153319 | 54 | 13 | 5.0 | 11.0 | 0.00 | 0.61 | 0.61 | 87 | 1006.4 |
| 20260506153016 | 54 | 7 | 4.0 | 8.0 | 0.00 | 0.61 | 0.61 | 87 | 1006.4 |
| 20260506152716 | 54 | 11 | 5.0 | 9.0 | 0.00 | 0.61 | 0.61 | 86 | 1006.5 |
| 20260506152416 | 54 | 12 | 6.0 | 12.0 | 0.00 | 0.61 | 0.61 | 86 | 1006.4 |
| 20260506152156 | 54 | 15 | 4.0 | 8.0 | 0.00 | 0.61 | 0.61 | 86 | 1006.5 |
| 20260506151816 | 55 | 18 | 4.0 | 7.0 | 0.00 | 0.61 | 0.61 | 86 | 1006.5 |
| 20260506151516 | 55 | 14 | 4.0 | 8.0 | 0.00 | 0.61 | 0.61 | 86 | 1006.5 |
| 20260506151216 | 55 | 15 | 5.0 | 9.0 | 0.00 | 0.61 | 0.61 | 86 | 1006.3 |
| 20260506150916 | 55 | 8 | 6.0 | 12.0 | 0.00 | 0.61 | 0.61 | 86 | 1006.3 |
| 20260506150615 | 54 | 9 | 6.0 | 11.0 | 0.00 | 0.61 | 0.61 | 86 | 1006.3 |
| 20260506150316 | 54 | 14 | 6.0 | 12.0 | 0.00 | 0.61 | 0.61 | 86 | 1006.3 |
| 20260506150016 | 54 | 360 | 4.0 | 11.0 | 0.00 | 0.61 | 0.61 | 87 | 1006.3 |
| 20260506145716 | 54 | 1 | 4.0 | 10.0 | 0.00 | 0.61 | 0.61 | 87 | 1006.4 |
| 20260506145416 | 54 | 7 | 5.0 | 10.0 | 0.00 | 0.61 | 0.61 | 87 | 1006.3 |
| 20260506145116 | 54 | 10 | 4.0 | 8.0 | 0.00 | 0.61 | 0.61 | 87 | 1006.3 |
| 20260506144819 | 54 | 13 | 4.0 | 8.0 | 0.00 | 0.61 | 0.61 | 87 | 1006.3 |
| 20260506144515 | 54 | 6 | 4.0 | 9.0 | 0.00 | 0.61 | 0.61 | 87 | 1006.3 |
| 20260506144219 | 54 | 8 | 5.0 | 10.0 | 0.00 | 0.61 | 0.61 | 87 | 1006.3 |
| 20260506143916 | 54 | 2 | 4.0 | 9.0 | 0.00 | 0.61 | 0.61 | 87 | 1006.3 |
| 20260506143616 | 54 | 13 | 3.0 | 7.0 | 0.00 | 0.61 | 0.61 | 87 | 1006.3 |
| 20260506143316 | 54 | 10 | 2.0 | 5.0 | 0.00 | 0.61 | 0.61 | 87 | 1006.3 |
| 20260506143016 | 54 | 7 | 3.0 | 6.0 | 0.00 | 0.61 | 0.61 | 87 | 1006.3 |
| 20260506142716 | 54 | 13 | 3.0 | 5.0 | 0.00 | 0.61 | 0.61 | 87 | 1006.3 |
| 20260506142415 | 54 | 2 | 4.0 | 8.0 | 0.00 | 0.61 | 0.61 | 87 | 1006.3 |
| 20260506142116 | 54 | 13 | 4.0 | 7.0 | 0.00 | 0.61 | 0.61 | 87 | 1006.2 |
| 20260506141858 | 54 | 8 | 5.0 | 9.0 | 0.00 | 0.61 | 0.61 | 87 | 1006.1 |
| 20260506141516 | 54 | 7 | 4.0 | 8.0 | 0.00 | 0.61 | 0.61 | 86 | 1006.2 |
| 20260506141216 | 54 | 355 | 4.0 | 8.0 | 0.00 | 0.61 | 0.61 | 86 | 1006.2 |
| 20260506140916 | 55 | 352 | 4.0 | 9.0 | 0.00 | 0.61 | 0.61 | 86 | 1006.1 |
| 20260506140702 | 55 | 4 | 5.0 | 10.0 | 0.00 | 0.61 | 0.61 | 86 | 1006.0 |
| 20260506140315 | 55 | 4 | 3.0 | 7.0 | 0.00 | 0.61 | 0.61 | 86 | 1006.1 |
| 20260506140016 | 55 | 335 | 2.0 | 4.0 | 0.00 | 0.61 | 0.61 | 86 | 1006.2 |
| 20260506135723 | 55 | 343 | 3.0 | 5.0 | 0.00 | 0.61 | 0.61 | 86 | 1006.1 |
| 20260506135416 | 55 | 334 | 2.0 | 4.0 | 0.00 | 0.61 | 0.61 | 87 | 1006.1 |
| 20260506135156 | 55 | 331 | 3.0 | 5.0 | 0.00 | 0.61 | 0.61 | 87 | 1006.1 |
| 20260506134831 | 55 | 0 | 4.0 | 7.0 | 0.00 | 0.61 | 0.61 | 87 | 1006.1 |
| 20260506134515 | 55 | 314 | 3.0 | 5.0 | 0.00 | 0.61 | 0.61 | 88 | 1006.1 |
| 20260506134216 | 54 | 310 | 3.0 | 7.0 | 0.00 | 0.61 | 0.61 | 88 | 1006.0 |
| 20260506133917 | 54 | 326 | 5.0 | 8.0 | 0.00 | 0.61 | 0.61 | 88 | 1006.0 |
| 20260506133616 | 54 | 329 | 4.0 | 8.0 | 0.00 | 0.61 | 0.61 | 88 | 1006.0 |
| 20260506133355 | 54 | 329 | 3.0 | 6.0 | 0.00 | 0.61 | 0.61 | 88 | 1006.1 |
| 20260506133016 | 54 | 334 | 3.0 | 5.0 | 0.00 | 0.61 | 0.61 | 88 | 1006.1 |
| 20260506132716 | 54 | 339 | 3.0 | 6.0 | 0.00 | 0.61 | 0.61 | 88 | 1006.1 |
| 20260506132416 | 54 | 8 | 5.0 | 11.0 | 0.00 | 0.61 | 0.61 | 88 | 1006.1 |
| 20260506132116 | 54 | 345 | 5.0 | 8.0 | 0.00 | 0.61 | 0.61 | 88 | 1006.1 |
| 20260506131816 | 54 | 337 | 5.0 | 7.0 | 0.00 | 0.61 | 0.61 | 88 | 1006.0 |
| 20260506131559 | 54 | 342 | 4.0 | 8.0 | 0.00 | 0.61 | 0.61 | 88 | 1005.9 |
| 20260506131216 | 54 | 337 | 4.0 | 9.0 | 0.00 | 0.61 | 0.61 | 88 | 1005.9 |
| 20260506130956 | 54 | 314 | 4.0 | 8.0 | 0.00 | 0.61 | 0.61 | 89 | 1005.8 |
| 20260506130656 | 54 | 302 | 6.0 | 8.0 | 0.00 | 0.61 | 0.61 | 89 | 1005.8 |
| 20260506130316 | 54 | 300 | 4.0 | 9.0 | 0.00 | 0.61 | 0.61 | 89 | 1005.8 |
| 20260506130056 | 54 | 292 | 3.0 | 7.0 | 0.00 | 0.61 | 0.61 | 89 | 1005.8 |
| 20260506125716 | 54 | 283 | 4.0 | 7.0 | 0.00 | 0.61 | 0.61 | 89 | 1005.8 |
| 20260506125416 | 54 | 301 | 5.0 | 7.0 | 0.00 | 0.61 | 0.61 | 89 | 1005.9 |
| 20260506125119 | 54 | 289 | 3.0 | 6.0 | 0.00 | 0.61 | 0.61 | 89 | 1005.9 |
| 20260506124816 | 54 | 301 | 2.0 | 4.0 | 0.00 | 0.61 | 0.61 | 89 | 1006.0 |
| 20260506124556 | 54 | 294 | 4.0 | 6.0 | 0.00 | 0.61 | 0.61 | 89 | 1005.9 |
| 20260506124216 | 54 | 314 | 3.0 | 5.0 | 0.00 | 0.61 | 0.61 | 89 | 1005.8 |
| 20260506123916 | 54 | 304 | 3.0 | 8.0 | 0.00 | 0.61 | 0.61 | 89 | 1005.8 |
| 20260506123616 | 54 | 303 | 5.0 | 8.0 | 0.00 | 0.61 | 0.61 | 89 | 1005.9 |
| 20260506123316 | 54 | 321 | 3.0 | 7.0 | 0.00 | 0.61 | 0.61 | 89 | 1005.8 |
| 20260506123016 | 54 | 323 | 5.0 | 8.0 | 0.00 | 0.61 | 0.61 | 89 | 1005.7 |
| 20260506122716 | 54 | 326 | 5.0 | 8.0 | 0.00 | 0.61 | 0.61 | 89 | 1005.8 |
| 20260506122419 | 54 | 347 | 3.0 | 6.0 | 0.00 | 0.61 | 0.61 | 89 | 1005.7 |
| 20260506122116 | 54 | 10 | 3.0 | 7.0 | 0.00 | 0.61 | 0.61 | 90 | 1005.6 |
| 20260506121816 | 54 | 5 | 3.0 | 6.0 | 0.00 | 0.61 | 0.61 | 90 | 1005.6 |
| 20260506121516 | 54 | 337 | 4.0 | 7.0 | 0.00 | 0.61 | 0.61 | 90 | 1005.6 |
| 20260506121216 | 54 | 323 | 5.0 | 7.0 | 0.00 | 0.61 | 0.61 | 90 | 1005.5 |
| 20260506120916 | 54 | 323 | 4.0 | 7.0 | 0.00 | 0.62 | 0.61 | 90 | 1005.5 |
| 20260506120616 | 54 | 327 | 3.0 | 7.0 | 0.00 | 0.62 | 0.61 | 91 | 1005.5 |
| 20260506120316 | 54 | 329 | 3.0 | 7.0 | 0.00 | 0.62 | 0.61 | 91 | 1005.5 |
| 20260506120016 | 54 | 322 | 3.0 | 6.0 | 0.00 | 0.62 | 0.61 | 91 | 1005.4 |
| 20260506115719 | 53 | 326 | 4.0 | 7.0 | 0.00 | 0.62 | 0.61 | 91 | 1005.5 |
| 20260506115456 | 53 | 327 | 4.0 | 6.0 | 0.00 | 0.63 | 0.61 | 91 | 1005.6 |
| 20260506115116 | 53 | 327 | 3.0 | 6.0 | 0.00 | 0.63 | 0.61 | 91 | 1005.6 |
| 20260506114819 | 53 | 326 | 2.0 | 4.0 | 0.00 | 0.63 | 0.61 | 91 | 1005.6 |
| 20260506114516 | 53 | 354 | 1.0 | 4.0 | 0.00 | 0.63 | 0.61 | 91 | 1005.6 |
| 20260506114256 | 53 | 350 | 2.0 | 4.0 | 0.00 | 0.63 | 0.61 | 91 | 1005.5 |
| 20260506113956 | 53 | 357 | 2.0 | 6.0 | 0.00 | 0.63 | 0.61 | 91 | 1005.4 |
| 20260506113618 | 53 | 330 | 4.0 | 6.0 | 0.00 | 0.63 | 0.61 | 91 | 1005.4 |
| 20260506113356 | 53 | 330 | 4.0 | 6.0 | 0.00 | 0.63 | 0.61 | 91 | 1005.4 |
| 20260506113016 | 53 | 4 | 3.0 | 6.0 | 0.00 | 0.63 | 0.61 | 91 | 1005.3 |
| 20260506112716 | 53 | 12 | 5.0 | 9.0 | 0.00 | 0.63 | 0.61 | 91 | 1005.2 |
| 20260506112415 | 53 | 10 | 4.0 | 7.0 | 0.00 | 0.63 | 0.61 | 91 | 1005.1 |
| 20260506112116 | 53 | 355 | 5.0 | 9.0 | 0.00 | 0.63 | 0.61 | 91 | 1005.1 |
| 20260506111819 | 53 | 346 | 4.0 | 7.0 | 0.00 | 0.63 | 0.61 | 91 | 1005.1 |
| 20260506111516 | 53 | 359 | 4.0 | 6.0 | 0.00 | 0.63 | 0.61 | 91 | 1005.1 |
| 20260506111216 | 53 | 345 | 5.0 | 8.0 | 0.00 | 0.63 | 0.61 | 91 | 1005.0 |
| 20260506110916 | 52 | 332 | 6.0 | 10.0 | 0.00 | 0.63 | 0.61 | 91 | 1005.0 |
| 20260506110616 | 52 | 4 | 4.0 | 8.0 | 0.00 | 0.63 | 0.61 | 91 | 1004.9 |
| 20260506110356 | 52 | 14 | 4.0 | 8.0 | 0.00 | 0.63 | 0.61 | 91 | 1004.9 |
| 20260506110016 | 52 | 10 | 4.0 | 10.0 | 0.00 | 0.63 | 0.61 | 91 | 1004.9 |
| 20260506105716 | 52 | 15 | 4.0 | 10.0 | 0.00 | 0.64 | 0.61 | 91 | 1004.8 |
| 20260506105416 | 52 | 15 | 6.0 | 10.0 | 0.00 | 0.64 | 0.61 | 91 | 1004.7 |
| 20260506105159 | 52 | 6 | 5.0 | 10.0 | 0.00 | 0.64 | 0.61 | 91 | 1004.7 |
| 20260506104816 | 53 | 14 | 5.0 | 9.0 | 0.00 | 0.64 | 0.61 | 91 | 1004.7 |
| 20260506104516 | 52 | 20 | 4.0 | 7.0 | 0.00 | 0.64 | 0.61 | 91 | 1004.6 |
| 20260506104256 | 52 | 12 | 4.0 | 10.0 | 0.00 | 0.64 | 0.61 | 91 | 1004.6 |
| 20260506103916 | 52 | 9 | 3.0 | 7.0 | 0.00 | 0.64 | 0.61 | 91 | 1004.7 |
| 20260506103616 | 52 | 10 | 3.0 | 6.0 | 0.00 | 0.64 | 0.61 | 91 | 1004.6 |
| 20260506103316 | 52 | 17 | 4.0 | 7.0 | 0.00 | 0.64 | 0.61 | 91 | 1004.6 |
| 20260506103059 | 52 | 334 | 4.0 | 8.0 | 0.00 | 0.64 | 0.61 | 91 | 1004.6 |
| 20260506102716 | 53 | 354 | 4.0 | 6.0 | 0.00 | 0.64 | 0.61 | 91 | 1004.6 |
| 20260506102416 | 53 | 350 | 4.0 | 7.0 | 0.00 | 0.64 | 0.61 | 91 | 1004.5 |
| 20260506102116 | 53 | 3 | 3.0 | 7.0 | 0.00 | 0.65 | 0.61 | 91 | 1004.4 |
| 20260506101819 | 53 | 6 | 4.0 | 9.0 | 0.00 | 0.65 | 0.61 | 91 | 1004.4 |
| 20260506101516 | 53 | 16 | 4.0 | 6.0 | 0.00 | 0.65 | 0.61 | 91 | 1004.4 |
| 20260506101216 | 53 | 21 | 4.0 | 8.0 | 0.00 | 0.65 | 0.61 | 91 | 1004.3 |
| 20260506100916 | 53 | 3 | 3.0 | 8.0 | 0.00 | 0.65 | 0.61 | 91 | 1004.3 |
| 20260506100616 | 53 | 20 | 2.0 | 6.0 | 0.00 | 0.65 | 0.61 | 91 | 1004.2 |
| 20260506100516 | 53 | 23 | 2.0 | 5.0 | 0.00 | 0.65 | 0.61 | 91 | 1004.2 |
| 20260506100056 | 53 | 13 | 4.0 | 10.0 | 0.00 | 0.65 | 0.61 | 91 | 1004.1 |
| 20260506095716 | 53 | 7 | 3.0 | 6.0 | 0.00 | 0.65 | 0.61 | 91 | 1004.0 |
| 20260506095415 | 53 | 13 | 4.0 | 9.0 | 0.00 | 0.65 | 0.61 | 91 | 1004.0 |
| 20260506095116 | 53 | 9 | 4.0 | 10.0 | 0.00 | 0.65 | 0.61 | 91 | 1004.0 |
| 20260506094816 | 54 | 17 | 4.0 | 7.0 | 0.00 | 0.65 | 0.61 | 91 | 1004.0 |
| 20260506094516 | 53 | 9 | 2.0 | 4.0 | 0.00 | 0.65 | 0.61 | 91 | 1004.0 |
| 20260506094216 | 53 | 29 | 3.0 | 6.0 | 0.00 | 0.65 | 0.61 | 91 | 1004.0 |
| 20260506093915 | 53 | 43 | 3.0 | 5.0 | 0.00 | 0.65 | 0.61 | 91 | 1003.9 |
| 20260506093656 | 53 | 37 | 3.0 | 7.0 | 0.00 | 0.65 | 0.61 | 91 | 1003.8 |
| 20260506093359 | 53 | 18 | 4.0 | 7.0 | 0.00 | 0.65 | 0.61 | 91 | 1003.7 |
| 20260506093216 | 53 | 30 | 4.0 | 7.0 | 0.00 | 0.65 | 0.61 | 91 | 1003.7 |
| 20260506092715 | 53 | 39 | 2.0 | 5.0 | 0.00 | 0.65 | 0.61 | 91 | 1003.7 |
| 20260506092416 | 53 | 36 | 2.0 | 5.0 | 0.01 | 0.65 | 0.61 | 91 | 1003.7 |
| 20260506092156 | 53 | 41 | 3.0 | 7.0 | 0.01 | 0.65 | 0.61 | 91 | 1003.6 |
| 20260506091856 | 53 | 36 | 4.0 | 8.0 | 0.01 | 0.65 | 0.61 | 91 | 1003.5 |
| 20260506091515 | 53 | 46 | 3.0 | 6.0 | 0.01 | 0.65 | 0.61 | 91 | 1003.5 |
| 20260506091215 | 53 | 38 | 4.0 | 8.0 | 0.01 | 0.65 | 0.61 | 91 | 1003.5 |
| 20260506090916 | 53 | 30 | 5.0 | 9.0 | 0.01 | 0.65 | 0.61 | 91 | 1003.5 |
| 20260506090619 | 53 | 34 | 4.0 | 7.0 | 0.01 | 0.65 | 0.61 | 91 | 1003.4 |
| 20260506090356 | 53 | 32 | 3.0 | 7.0 | 0.01 | 0.65 | 0.61 | 91 | 1003.4 |
| 20260506090016 | 53 | 37 | 4.0 | 8.0 | 0.01 | 0.65 | 0.61 | 91 | 1003.4 |
| 20260506085756 | 53 | 42 | 4.0 | 7.0 | 0.02 | 0.65 | 0.61 | 91 | 1003.4 |
| 20260506085456 | 53 | 33 | 2.0 | 4.0 | 0.02 | 0.65 | 0.61 | 92 | 1003.4 |
| 20260506085115 | 53 | 37 | 2.0 | 4.0 | 0.02 | 0.65 | 0.61 | 92 | 1003.4 |
| 20260506084819 | 53 | 41 | 2.0 | 4.0 | 0.02 | 0.65 | 0.61 | 92 | 1003.4 |
| 20260506084516 | 53 | 44 | 4.0 | 7.0 | 0.02 | 0.65 | 0.61 | 92 | 1003.4 |
| 20260506084217 | 53 | 43 | 2.0 | 4.0 | 0.02 | 0.65 | 0.61 | 91 | 1003.3 |
| 20260506083916 | 53 | 41 | 3.0 | 5.0 | 0.02 | 0.65 | 0.61 | 91 | 1003.3 |
| 20260506083619 | 53 | 43 | 4.0 | 8.0 | 0.02 | 0.65 | 0.61 | 91 | 1003.4 |
| 20260506083356 | 53 | 42 | 2.0 | 4.0 | 0.02 | 0.65 | 0.61 | 91 | 1003.5 |
| 20260506083015 | 53 | 46 | 1.0 | 3.0 | 0.02 | 0.65 | 0.61 | 91 | 1003.5 |
| 20260506082759 | 53 | 59 | 3.0 | 4.0 | 0.02 | 0.65 | 0.61 | 91 | 1003.5 |
| 20260506082416 | 53 | 60 | 3.0 | 6.0 | 0.01 | 0.64 | 0.60 | 92 | 1003.5 |
| 20260506082116 | 53 | 40 | 2.0 | 4.0 | 0.01 | 0.64 | 0.60 | 92 | 1003.5 |
| 20260506081816 | 53 | 52 | 2.0 | 4.0 | 0.01 | 0.64 | 0.60 | 91 | 1003.4 |
| 20260506081516 | 53 | 69 | 2.0 | 6.0 | 0.01 | 0.64 | 0.60 | 91 | 1003.4 |
| 20260506081216 | 53 | 64 | 3.0 | 6.0 | 0.01 | 0.64 | 0.60 | 91 | 1003.4 |
| 20260506080915 | 53 | 69 | 4.0 | 8.0 | 0.01 | 0.64 | 0.60 | 91 | 1003.4 |
| 20260506080616 | 53 | 54 | 3.0 | 6.0 | 0.01 | 0.65 | 0.60 | 91 | 1003.4 |
| 20260506080316 | 53 | 59 | 3.0 | 9.0 | 0.02 | 0.65 | 0.60 | 91 | 1003.4 |
| 20260506073316 | 52 | 60 | 3.0 | 6.0 | 0.01 | 0.64 | 0.59 | 91 | 1003.5 |
| 20260506073015 | 52 | 64 | 3.0 | 6.0 | 0.01 | 0.64 | 0.59 | 91 | 1003.5 |
| 20260506072716 | 52 | 53 | 3.0 | 7.0 | 0.01 | 0.64 | 0.59 | 91 | 1003.5 |
| 20260506072419 | 52 | 64 | 3.0 | 7.0 | 0.01 | 0.64 | 0.59 | 92 | 1003.5 |
| 20260506072116 | 52 | 61 | 3.0 | 7.0 | 0.01 | 0.64 | 0.59 | 91 | 1003.5 |
| 20260506071816 | 52 | 65 | 3.0 | 8.0 | 0.01 | 0.65 | 0.59 | 91 | 1003.5 |
| 20260506071516 | 52 | 60 | 4.0 | 8.0 | 0.01 | 0.65 | 0.59 | 91 | 1003.5 |
| 20260506071216 | 52 | 71 | 2.0 | 5.0 | 0.01 | 0.65 | 0.59 | 91 | 1003.5 |
| 20260506070916 | 52 | 62 | 2.0 | 5.0 | 0.01 | 0.65 | 0.59 | 91 | 1003.5 |
| 20260506070618 | 52 | 52 | 2.0 | 4.0 | 0.01 | 0.65 | 0.59 | 91 | 1003.5 |
| 20260506070316 | 52 | 64 | 3.0 | 7.0 | 0.00 | 0.64 | 0.58 | 91 | 1003.6 |
| 20260506062415 | 52 | 50 | 4.0 | 8.0 | 0.01 | 0.64 | 0.58 | 91 | 1003.6 |
| 20260506062116 | 52 | 48 | 3.0 | 7.0 | 0.02 | 0.64 | 0.58 | 91 | 1003.6 |
| 20260506061816 | 52 | 52 | 4.0 | 8.0 | 0.02 | 0.64 | 0.58 | 91 | 1003.6 |
| 20260506061516 | 52 | 46 | 5.0 | 11.0 | 0.02 | 0.64 | 0.58 | 91 | 1003.7 |
| 20260506061216 | 52 | 50 | 4.0 | 9.0 | 0.02 | 0.64 | 0.58 | 91 | 1003.7 |
| 20260506060919 | 52 | 56 | 3.0 | 7.0 | 0.02 | 0.64 | 0.58 | 91 | 1003.7 |
| 20260506060616 | 52 | 48 | 4.0 | 8.0 | 0.02 | 0.64 | 0.58 | 91 | 1003.7 |
| 20260506060315 | 52 | 61 | 3.0 | 8.0 | 0.02 | 0.64 | 0.58 | 91 | 1003.7 |
| 20260506051216 | 52 | 57 | 2.0 | 4.0 | 0.09 | 0.62 | 0.57 | 91 | 1003.8 |
| 20260506050918 | 52 | 57 | 2.0 | 3.0 | 0.09 | 0.62 | 0.57 | 91 | 1003.8 |
| 20260506050616 | 52 | 57 | 2.0 | 3.0 | 0.08 | 0.61 | 0.56 | 91 | 1003.9 |
| 20260506050316 | 52 | 57 | 2.0 | 4.0 | 0.08 | 0.61 | 0.56 | 91 | 1003.9 |
| 20260506045115 | 52 | 58 | 2.0 | 3.0 | 0.06 | 0.60 | 0.54 | 91 | 1004.1 |